Location: *
(35.2348°S, 91.3916°E)
Time: 14:53:31
(UTC+00:00)

Intercosmos 25 Rocket - Pass Details

Date: 23 October 2019
Orbit: 436 x 2984 km, 82.6° (Epoch: 20 November)

Event Time Altitude Azimuth Distance (km) Brightness Sun altitude
Rises 13:17:52 0° 183° (S) 2,618 7.2 -12.8°
Reaches altitude 10° 13:19:40 10° 180° (S) 1,844 6.3 -13.1°
Maximum altitude 13:23:33 68° 96° (E) 758 3.8 -13.8°
Drops below altitude 10° 13:29:27 10° 13° (NNE) 2,793 6.5 -14.9°
Sets 13:32:43 0° 10° (N) 4,127 7.4 -15.5°
